星链-33689 (STARLINK-33689)

导读 | 豆包AI

STARLINK-33689是美国SpaceX星链星座的一员,于2025年3月18日发射入轨。星链星座旨在构建全球卫星互联网,为全球范围用户提供高速宽带接入服务,尤其服务地面网络覆盖薄弱地区。该卫星入轨后,将同已发射的星链卫星协同,进一步完善星座网络布局,提升全球无缝网络覆盖能力,推动星链全球互联网服务的覆盖广度与服务质量提升。

基本信息
目录编号:
63322
目录名称:
STARLINK-33689
国际标识:
2025-057R
轨道中心:
EARTH
卫星名称:
星链-33689
卫星全名:
星链-33689 (STARLINK-33689)
卫星状态:
在轨 (已飞行407 天)
发射日期:
2025-03-18 UTC
国别 :
美国 (US)
星等 :
--
轨道信息
数据来源 国际轨道数据
星历时间: 2026-04-29T15:33:22+0800
12小时前
查看轨道信息
半长轴: 6861.188km
偏心率: 0.0001475
轨道倾角: 43.001°
近地点辐角 269.316°
升交点赤经 104.618°
平近点角 90.752°
近地点: 482.038km
远地点: 484.064km
周期: 94.267分钟
每日圈数: 15.275796
详细信息
固有亮度:
5
最大亮度:
2.5
卫星平台:
Starlink V1.0
覆盖范围:
全球
运营商:
太空探索技术公司
运营商所在国:
美国
制造商(研发单位):
太空探索技术公司
制造商所在国:
美国
使用方式:
暂无
卫星简介
Starlink 计划是 SpaceX 推出的全球卫星互联网项目,通过发射低轨道卫星,为全球尤其是偏远地区提供高速、低延迟的互联网服务。自 2019 年起,Starlink 已部署数千颗卫星,旨在缩小全球数字鸿沟,推动互联网普及。该项目还为军事、航空等行业提供通信支持,带来广泛经济效益。
2D轨道图
3D轨道图
轨道高度分析图
轨道倾角分析图
轨道综合分析图
查看轨道综合分析图